| time (UTC) | temp C | wind direction | speed KPH | gust KPH | rain 1hr cm | rain 24hr cm | rain mn cm | humidity % | barometer mb |
| 20260503010043 | 6 | 151 | 1.6 | 11.3 | 0.00 | 0.00 | 0.00 | 52 | 1014.9 |
| 20260503004543 | 7 | 0 | 1.6 | 12.9 | 0.00 | 0.00 | 0.00 | 51 | 1014.8 |
| 20260503003053 | 7 | 170 | 6.4 | 14.5 | 0.00 | 0.00 | 0.00 | 50 | 1014.7 |
| 20260503001538 | 7 | 185 | 3.2 | 17.7 | 0.00 | 0.00 | 0.00 | 49 | 1014.6 |
| 20260503000042 | 8 | 131 | 4.8 | 17.7 | 0.00 | 0.00 | 0.00 | 47 | 1014.5 |
| 20260502234537 | 8 | 103 | 4.8 | 19.3 | 0.00 | 0.00 | 0.00 | 46 | 1014.2 |
| 20260502233042 | 8 | 143 | 8.0 | 20.9 | 0.00 | 0.00 | 0.00 | 45 | 1014.2 |
| 20260502231545 | 8 | 113 | 6.4 | 22.5 | 0.00 | 0.00 | 0.00 | 45 | 1014.1 |
| 20260502230043 | 8 | 190 | 6.4 | 19.3 | 0.00 | 0.00 | 0.00 | 46 | 1014.1 |
| 20260502224538 | 9 | 208 | 6.4 | 22.5 | 0.00 | 0.00 | 0.00 | 45 | 1014.0 |
| 20260502223037 | 9 | 126 | 6.4 | 17.7 | 0.00 | 0.00 | 0.00 | 44 | 1014.0 |
| 20260502221536 | 8 | 111 | 4.8 | 17.7 | 0.00 | 0.00 | 0.00 | 45 | 1013.9 |
| 20260502220043 | 9 | 195 | 9.7 | 20.9 | 0.00 | 0.00 | 0.00 | 44 | 1013.7 |
| 20260502214540 | 8 | 175 | 8.0 | 19.3 | 0.00 | 0.00 | 0.00 | 45 | 1013.7 |
| 20260502213043 | 9 | 145 | 6.4 | 16.1 | 0.00 | 0.00 | 0.00 | 46 | 1013.5 |
| 20260502211551 | 9 | 175 | 4.8 | 12.9 | 0.00 | 0.00 | 0.00 | 46 | 1013.6 |
| 20260502210039 | 9 | 141 | 6.4 | 19.3 | 0.00 | 0.00 | 0.00 | 50 | 1013.5 |
| 20260502204537 | 10 | 135 | 8.0 | 22.5 | 0.00 | 0.00 | 0.00 | 46 | 1013.8 |
| 20260502203036 | 10 | 131 | 12.9 | 20.9 | 0.00 | 0.00 | 0.00 | 42 | 1013.6 |
| 20260502201535 | 10 | 110 | 9.7 | 24.1 | 0.00 | 0.00 | 0.00 | 43 | 1013.7 |
| 20260502200045 | 10 | 105 | 8.0 | 22.5 | 0.00 | 0.00 | 0.00 | 43 | 1013.7 |
| 20260502194538 | 10 | 149 | 11.3 | 29.0 | 0.00 | 0.00 | 0.00 | 41 | 1013.8 |
| 20260502193046 | 10 | 108 | 14.5 | 32.2 | 0.00 | 0.00 | 0.00 | 41 | 1013.8 |
| 20260502191555 | 10 | 108 | 12.9 | 25.7 | 0.00 | 0.00 | 0.00 | 43 | 1013.7 |
| 20260502190043 | 10 | 100 | 8.0 | 19.3 | 0.00 | 0.00 | 0.00 | 40 | 1013.7 |
| 20260502184543 | 10 | 98 | 9.7 | 24.1 | 0.00 | 0.00 | 0.00 | 43 | 1013.8 |
| 20260502183040 | 10 | 175 | 11.3 | 24.1 | 0.00 | 0.00 | 0.00 | 41 | 1013.8 |
| 20260502181551 | 10 | 166 | 8.0 | 24.1 | 0.00 | 0.00 | 0.00 | 42 | 1013.9 |
| 20260502163036 | 10 | 191 | 9.7 | 22.5 | 0.00 | 0.00 | 0.00 | 41 | 1014.5 |
| 20260502161544 | 10 | 83 | 6.4 | 19.3 | 0.00 | 0.00 | 0.00 | 42 | 1014.5 |
| 20260502151550 | 9 | 193 | 6.4 | 19.3 | 0.00 | 0.00 | 0.00 | 44 | 1014.9 |
| 20260502123045 | 4 | 175 | 3.2 | 8.0 | 0.00 | 0.00 | 0.00 | 71 | 1015.1 |
| 20260502121542 | 4 | 99 | 1.6 | 8.0 | 0.00 | 0.00 | 0.00 | 72 | 1015.1 |
| 20260502114545 | 3 | 101 | 0.0 | 4.8 | 0.00 | 0.00 | 0.00 | 72 | 1015.3 |
| 20260502113040 | 3 | 169 | 1.6 | 6.4 | 0.00 | 0.00 | 0.00 | 72 | 1015.2 |
| 20260502111546 | 3 | 116 | 0.0 | 4.8 | 0.00 | 0.00 | 0.00 | 72 | 1014.9 |
| 20260502110042 | 3 | 185 | 1.6 | 4.8 | 0.00 | 0.00 | 0.00 | 71 | 1015.0 |
| 20260502104541 | 3 | 0 | 1.6 | 6.4 | 0.00 | 0.00 | 0.00 | 71 | 1014.9 |
| 20260502103043 | 3 | 156 | 1.6 | 6.4 | 0.00 | 0.00 | 0.00 | 70 | 1014.7 |
| 20260502101537 | 4 | 185 | 1.6 | 6.4 | 0.00 | 0.00 | 0.00 | 69 | 1015.0 |
| 20260502070042 | 6 | 118 | 4.8 | 11.3 | 0.00 | 0.00 | 0.00 | 59 | 1014.7 |
| 20260502064538 | 6 | 185 | 3.2 | 9.7 | 0.00 | 0.00 | 0.00 | 60 | 1014.7 |
| 20260502063054 | 6 | 168 | 6.4 | 14.5 | 0.00 | 0.00 | 0.00 | 62 | 1014.9 |
| 20260502061541 | 7 | 143 | 3.2 | 12.9 | 0.00 | 0.00 | 0.00 | 70 | 1015.0 |
| 20260502060037 | 7 | 118 | 6.4 | 14.5 | 0.00 | 0.00 | 0.00 | 71 | 1015.1 |
| 20260502054546 | 7 | 135 | 3.2 | 12.9 | 0.00 | 0.00 | 0.00 | 72 | 1015.1 |
| 20260502053053 | 7 | 97 | 3.2 | 11.3 | 0.00 | 0.00 | 0.00 | 71 | 1015.0 |
| 20260502051537 | 7 | 189 | 6.4 | 12.9 | 0.00 | 0.00 | 0.00 | 71 | 1015.1 |
| 20260502050035 | 7 | 180 | 3.2 | 12.9 | 0.00 | 0.00 | 0.00 | 70 | 1015.1 |
| 20260502044544 | 8 | 141 | 4.8 | 16.1 | 0.00 | 0.00 | 0.00 | 69 | 1015.2 |
| 20260502043044 | 8 | 164 | 6.4 | 12.9 | 0.00 | 0.00 | 0.00 | 68 | 1015.4 |
| 20260502041538 | 8 | 156 | 6.4 | 14.5 | 0.00 | 0.00 | 0.00 | 67 | 1015.4 |
| 20260502040040 | 8 | 166 | 3.2 | 19.3 | 0.00 | 0.00 | 0.00 | 66 | 1015.3 |
| 20260502034537 | 8 | 166 | 8.0 | 14.5 | 0.00 | 0.00 | 0.00 | 66 | 1015.3 |
| 20260502033040 | 8 | 170 | 4.8 | 17.7 | 0.00 | 0.00 | 0.00 | 67 | 1015.5 |
| 20260502031536 | 9 | 175 | 8.0 | 19.3 | 0.00 | 0.00 | 0.00 | 66 | 1015.4 |
| 20260502030048 | 9 | 139 | 6.4 | 16.1 | 0.00 | 0.00 | 0.00 | 66 | 1015.4 |
| 20260502024541 | 10 | 123 | 4.8 | 17.7 | 0.00 | 0.00 | 0.00 | 65 | 1015.3 |
| 20260502023039 | 10 | 175 | 6.4 | 16.1 | 0.00 | 0.00 | 0.00 | 65 | 1015.0 |
| 20260502021537 | 10 | 175 | 4.8 | 14.5 | 0.00 | 0.00 | 0.00 | 66 | 1014.6 |
| 20260502020040 | 10 | 152 | 3.2 | 14.5 | 0.00 | 0.00 | 0.00 | 67 | 1014.6 |
| 20260502014538 | 10 | 136 | 4.8 | 12.9 | 0.00 | 0.00 | 0.00 | 67 | 1014.1 |
| 20260502013041 | 10 | 120 | 3.2 | 12.9 | 0.00 | 0.00 | 0.00 | 66 | 1013.8 |
| 20260502011540 | 11 | 185 | 4.8 | 17.7 | 0.00 | 0.00 | 0.00 | 64 | 1013.8 |